Вернуться в каталог

SL-12 DEB *

LostHEO
NORAD 35314·DEBRIS·🇷🇺 Russia

Запущен Apr 4, 1991 с Baikonur Cosmodrome

Loading…

Ближайшие Пролёты (ближайшие 24 часа)

TLE

УстаревшееSource: Space-Track

Эпоха: Mar 20, 2014, 04:07 UTC

1 35314U 91025AP  14079.17165306 +.00031265 +00000-0 +10564+0 0  9995
2 35314 063.6184 138.5982 5050164 358.5131 000.9461 05.19456901090255

Отслеживайте SL-12 DEB * в реальном времени с AllMySat

Download on the App Store